Back to catalog

COSMOS 1285 DEB

LostHEO
NORAD 25838·DEBRIS·🇷🇺 Russia

Launched Aug 4, 1981 from Plesetsk Cosmodrome

Loading…

Next Passes (next 24 hours)

TLE

StaleSource: Space-Track

Epoch: Aug 18, 2025, 07:16 UTC

1 25838U 81071G   25230.30322652  .00000399  00000-0  00000+0 0  9998
2 25838  67.9573  98.7936 6249193   0.3044   0.1173  1.98221688196140

Track COSMOS 1285 DEB in real time with AllMySat

Download on the App Store